AXY889 LFBD-LFPB

Flight info

Callsign AXY889
Flight time 0h 56m
Altitude 30000
Route CNA DCT POI DCT PEPAX UT182 KEPER
Aircraft B737/M-SDE2E3FGHIRWXY/LB1

Departure

Time 2026-04-19 22:19
Airport Bordeaux–Mérignac Airport (LFBD)

Arrival

Time 2026-04-19 23:15
Airport Paris-Le Bourget International Airport (LFPB)
Time Latitude Longitude Altitude Speed Heading
2026-04-19 21:57 44.83069 -0.70489 167 ft 0 kts 134°
2026-04-19 22:10 44.83072 -0.70493 167 ft 2 kts 136°
2026-04-19 22:10 44.83085 -0.70507 167 ft 3 kts 172°
2026-04-19 22:10 44.83102 -0.70504 167 ft 3 kts 218°
2026-04-19 22:10 44.83113 -0.70486 166 ft 2 kts 251°
2026-04-19 22:11 44.83116 -0.70477 166 ft 0 kts 253°
2026-04-19 22:11 44.83116 -0.70476 166 ft 0 kts 253°
2026-04-19 22:13 44.83115 -0.70478 166 ft 1 kts 253°
2026-04-19 22:13 44.83110 -0.70503 167 ft 3 kts 253°
2026-04-19 22:13 44.83116 -0.70558 167 ft 9 kts 300°
2026-04-19 22:13 44.83093 -0.70642 167 ft 12 kts 225°
2026-04-19 22:14 44.83025 -0.70740 168 ft 16 kts 225°
2026-04-19 22:14 44.82935 -0.70832 169 ft 14 kts 231°
2026-04-19 22:14 44.82941 -0.70958 169 ft 14 kts 274°
2026-04-19 22:14 44.82878 -0.71070 169 ft 17 kts 226°
2026-04-19 22:15 44.82785 -0.71202 167 ft 21 kts 225°
2026-04-19 22:15 44.82679 -0.71354 169 ft 21 kts 225°
2026-04-19 22:15 44.82574 -0.71501 169 ft 21 kts 225°
2026-04-19 22:15 44.82474 -0.71644 169 ft 20 kts 225°
2026-04-19 22:16 44.82377 -0.71784 169 ft 20 kts 225°
2026-04-19 22:16 44.82282 -0.71917 169 ft 19 kts 225°
2026-04-19 22:16 44.82190 -0.72047 169 ft 18 kts 225°
2026-04-19 22:16 44.82109 -0.72180 169 ft 18 kts 239°
2026-04-19 22:17 44.82080 -0.72343 169 ft 17 kts 271°
2026-04-19 22:17 44.82129 -0.72477 170 ft 12 kts 316°
2026-04-19 22:17 44.82173 -0.72520 171 ft 7 kts 356°
2026-04-19 22:17 44.82210 -0.72472 169 ft 8 kts 46°
2026-04-19 22:18 44.82222 -0.72455 169 ft 1 kts 45°
2026-04-19 22:18 44.82287 -0.72364 169 ft 39 kts 45°
2026-04-19 22:18 44.82696 -0.71780 173 ft 124 kts 45°
2026-04-19 22:18 44.83434 -0.70723 504 ft 162 kts 46°
2026-04-19 22:19 44.84227 -0.69560 1471 ft 171 kts 47°
2026-04-19 22:19 44.85077 -0.68308 2300 ft 183 kts 47°
2026-04-19 22:19 44.86047 -0.66902 2830 ft 213 kts 46°
2026-04-19 22:19 44.87150 -0.65334 3189 ft 241 kts 46°
2026-04-19 22:20 44.88376 -0.63579 3738 ft 266 kts 45°
2026-04-19 22:20 44.89755 -0.61638 4335 ft 286 kts 44°
2026-04-19 22:20 44.91135 -0.59691 5696 ft 276 kts 44°
2026-04-19 22:20 44.92496 -0.57775 6838 ft 279 kts 40°
2026-04-19 22:21 44.94217 -0.56509 7754 ft 284 kts
2026-04-19 22:21 44.96159 -0.56299 9000 ft 279 kts 358°
2026-04-19 22:21 44.98100 -0.56274 10125 ft 283 kts 356°
2026-04-19 22:21 45.00100 -0.56245 10368 ft 290 kts 357°
2026-04-19 22:22 45.02188 -0.56162 10736 ft 314 kts 359°
2026-04-19 22:22 45.04434 -0.55981 11461 ft 328 kts
2026-04-19 22:22 45.06722 -0.55759 12543 ft 331 kts
2026-04-19 22:22 45.09030 -0.55533 13674 ft 335 kts
2026-04-19 22:23 45.11372 -0.55311 14661 ft 340 kts
2026-04-19 22:23 45.13757 -0.55077 15650 ft 346 kts
2026-04-19 22:23 45.16155 -0.54451 16650 ft 356 kts 12°
2026-04-19 22:23 45.18541 -0.53400 17654 ft 362 kts 14°
2026-04-19 22:24 45.20954 -0.52264 18609 ft 369 kts 14°
2026-04-19 22:24 45.23406 -0.51094 19478 ft 374 kts 14°
2026-04-19 22:24 45.25894 -0.49911 20374 ft 379 kts 14°
2026-04-19 22:24 45.28414 -0.48724 21259 ft 384 kts 14°
2026-04-19 22:25 45.30971 -0.47529 22116 ft 390 kts 14°
2026-04-19 22:25 45.33567 -0.46321 22965 ft 395 kts 14°
2026-04-19 22:25 45.36198 -0.45100 23778 ft 401 kts 13°
2026-04-19 22:25 45.38861 -0.43864 24510 ft 405 kts 13°
2026-04-19 22:26 45.41547 -0.42617 25256 ft 408 kts 13°
2026-04-19 22:26 45.44250 -0.41360 26021 ft 409 kts 13°
2026-04-19 22:26 45.46952 -0.40101 26934 ft 407 kts 13°
2026-04-19 22:26 45.49628 -0.38851 27955 ft 402 kts 12°
2026-04-19 22:27 45.52273 -0.37616 28952 ft 398 kts 12°
2026-04-19 22:27 45.54907 -0.36387 29745 ft 400 kts 12°
2026-04-19 22:27 45.57558 -0.35152 30098 ft 401 kts 12°
2026-04-19 22:28 45.62846 -0.32679 30112 ft 398 kts 12°
2026-04-19 22:28 45.68075 -0.30020 30105 ft 402 kts 17°
2026-04-19 22:29 45.73176 -0.26697 30102 ft 403 kts 19°
2026-04-19 22:29 45.78257 -0.23279 30123 ft 404 kts 19°
2026-04-19 22:30 45.83325 -0.19914 30106 ft 404 kts 18°
2026-04-19 22:30 45.88444 -0.16546 30103 ft 404 kts 18°
2026-04-19 22:31 45.93561 -0.13184 30107 ft 404 kts 18°
2026-04-19 22:31 45.98677 -0.09819 30118 ft 404 kts 18°
2026-04-19 22:32 46.03792 -0.06446 30112 ft 404 kts 18°
2026-04-19 22:32 46.08909 -0.03065 30113 ft 404 kts 18°
2026-04-19 22:33 46.14017 0.00317 30125 ft 403 kts 18°
2026-04-19 22:33 46.19113 0.03699 30137 ft 402 kts 17°
2026-04-19 22:34 46.24183 0.07071 30116 ft 400 kts 17°
2026-04-19 22:34 46.29219 0.10426 30125 ft 398 kts 17°
2026-04-19 22:35 46.34208 0.13756 30141 ft 397 kts 17°
2026-04-19 22:35 46.39216 0.17104 30141 ft 396 kts 17°
2026-04-19 22:36 46.44222 0.20460 30154 ft 396 kts 17°
2026-04-19 22:36 46.49236 0.23828 30156 ft 396 kts 17°
2026-04-19 22:37 46.54238 0.27194 30157 ft 396 kts 17°
2026-04-19 22:37 46.59304 0.30269 30151 ft 388 kts
2026-04-19 22:38 46.64500 0.31898 30161 ft 383 kts
2026-04-19 22:38 46.69730 0.33423 30154 ft 383 kts
2026-04-19 22:39 46.74954 0.34998 30154 ft 383 kts
2026-04-19 22:39 46.80174 0.36604 30154 ft 383 kts
2026-04-19 22:40 46.85375 0.38216 30157 ft 383 kts
2026-04-19 22:40 46.90593 0.39837 30159 ft 383 kts
2026-04-19 22:41 46.95816 0.41462 30164 ft 384 kts
2026-04-19 22:41 47.01061 0.43098 30165 ft 387 kts
2026-04-19 22:42 47.06309 0.44696 30157 ft 386 kts
2026-04-19 22:42 47.11591 0.44584 30164 ft 376 kts 346°
2026-04-19 22:43 47.15879 0.43513 30162 ft 376 kts 345°
2026-04-19 22:43 47.21032 0.42183 30175 ft 376 kts 345°
2026-04-19 22:44 47.26196 0.40892 30160 ft 376 kts 346°
2026-04-19 22:44 47.31354 0.39624 30170 ft 375 kts 346°
2026-04-19 22:45 47.36471 0.38367 30172 ft 375 kts 346°
2026-04-19 22:45 47.41621 0.37101 30182 ft 375 kts 346°
2026-04-19 22:46 47.46773 0.35831 30178 ft 375 kts 346°
2026-04-19 22:46 47.51935 0.34554 30178 ft 375 kts 346°
2026-04-19 22:46 47.54518 0.33911 29780 ft 379 kts 346°
2026-04-19 22:47 47.57110 0.33267 29190 ft 378 kts 346°
2026-04-19 22:47 47.59694 0.32625 28595 ft 375 kts 346°
2026-04-19 22:47 47.62249 0.31991 28079 ft 370 kts 346°
2026-04-19 22:47 47.64743 0.31370 27547 ft 366 kts 346°
2026-04-19 22:48 47.67242 0.30747 27004 ft 362 kts 345°
2026-04-19 22:48 47.69718 0.30129 26481 ft 359 kts 345°
2026-04-19 22:48 47.72169 0.29515 25960 ft 355 kts 345°
2026-04-19 22:48 47.74598 0.28907 25452 ft 353 kts 345°
2026-04-19 22:49 47.77008 0.28304 24940 ft 350 kts 345°
2026-04-19 22:49 47.79443 0.28033 24397 ft 357 kts
2026-04-19 22:49 47.81876 0.28919 24052 ft 363 kts 16°
2026-04-19 22:49 47.84087 0.30829 23666 ft 369 kts 28°
2026-04-19 22:50 47.86175 0.33048 23269 ft 369 kts 30°
2026-04-19 22:50 47.88244 0.35303 22887 ft 367 kts 30°
2026-04-19 22:50 47.90306 0.37512 22526 ft 365 kts 29°
2026-04-19 22:50 47.92380 0.39698 22193 ft 364 kts 29°
2026-04-19 22:51 47.94462 0.41878 21848 ft 366 kts 29°
2026-04-19 22:51 47.98634 0.46249 21159 ft 365 kts 29°
2026-04-19 22:51 48.00707 0.48426 20816 ft 364 kts 29°
2026-04-19 22:52 48.02745 0.50569 20489 ft 363 kts 29°
2026-04-19 22:52 48.04810 0.52742 20142 ft 362 kts 29°
2026-04-19 22:52 48.06866 0.54908 19806 ft 361 kts 29°
2026-04-19 22:52 48.08920 0.57074 19466 ft 361 kts 30°
2026-04-19 22:53 48.10971 0.59240 19137 ft 360 kts 30°
2026-04-19 22:53 48.13016 0.61401 18803 ft 360 kts 30°
2026-04-19 22:53 48.15058 0.63561 18451 ft 359 kts 30°
2026-04-19 22:53 48.17095 0.65719 18067 ft 357 kts 30°
2026-04-19 22:54 48.19107 0.67854 17720 ft 352 kts 30°
2026-04-19 22:54 48.21083 0.69953 17372 ft 345 kts 30°
2026-04-19 22:54 48.23035 0.72027 17064 ft 342 kts 30°
2026-04-19 22:54 48.24976 0.74090 16740 ft 341 kts 30°
2026-04-19 22:55 48.26906 0.76141 16417 ft 339 kts 30°
2026-04-19 22:55 48.28803 0.78161 16103 ft 338 kts 30°
2026-04-19 22:55 48.30715 0.80198 15786 ft 336 kts 31°
2026-04-19 22:55 48.32620 0.82230 15471 ft 335 kts 31°
2026-04-19 22:56 48.34459 0.84381 15148 ft 339 kts 42°
2026-04-19 22:56 48.35780 0.87350 14855 ft 343 kts 58°
2026-04-19 22:56 48.36869 0.90542 14529 ft 343 kts 60°
2026-04-19 22:56 48.37936 0.93744 14205 ft 342 kts 60°
2026-04-19 22:57 48.39015 0.96927 13859 ft 341 kts 60°
2026-04-19 22:57 48.40103 1.00093 13516 ft 339 kts 59°
2026-04-19 22:57 48.41192 1.03243 13177 ft 337 kts 59°
2026-04-19 22:57 48.42262 1.06344 12847 ft 331 kts 60°
2026-04-19 22:58 48.43313 1.09396 12545 ft 325 kts 60°
2026-04-19 22:58 48.44347 1.12402 12244 ft 322 kts 60°
2026-04-19 22:58 48.45375 1.15392 11943 ft 321 kts 60°
2026-04-19 22:58 48.46398 1.18370 11650 ft 319 kts 60°
2026-04-19 22:59 48.47413 1.21330 11346 ft 317 kts 60°
2026-04-19 22:59 48.48408 1.24231 11062 ft 315 kts 60°
2026-04-19 22:59 48.49410 1.27158 10770 ft 314 kts 60°
2026-04-19 22:59 48.50400 1.30057 10479 ft 306 kts 60°
2026-04-19 23:00 48.51360 1.32871 10269 ft 295 kts 60°
2026-04-19 23:00 48.52285 1.35572 10062 ft 285 kts 60°
2026-04-19 23:00 48.53187 1.38196 9901 ft 281 kts 60°
2026-04-19 23:00 48.54084 1.40803 9735 ft 279 kts 60°
2026-04-19 23:01 48.54974 1.43396 9593 ft 277 kts 60°
2026-04-19 23:01 48.55857 1.45976 9447 ft 276 kts 60°
2026-04-19 23:01 48.56737 1.48545 9302 ft 275 kts 59°
2026-04-19 23:01 48.57903 1.50781 9121 ft 271 kts 35°
2026-04-19 23:02 48.59507 1.52209 8974 ft 267 kts 24°
2026-04-19 23:02 48.61183 1.53428 8787 ft 267 kts 23°
2026-04-19 23:02 48.62865 1.54630 8609 ft 267 kts 23°
2026-04-19 23:02 48.64541 1.55836 8432 ft 266 kts 24°
2026-04-19 23:03 48.66219 1.57056 8106 ft 271 kts 24°
2026-04-19 23:03 48.67896 1.58287 7859 ft 264 kts 24°
2026-04-19 23:03 48.69526 1.59490 7660 ft 259 kts 24°
2026-04-19 23:03 48.71137 1.60682 7485 ft 258 kts 24°
2026-04-19 23:04 48.72752 1.61878 7311 ft 258 kts 24°
2026-04-19 23:04 48.74337 1.63152 7129 ft 259 kts 35°
2026-04-19 23:04 48.75486 1.65254 6959 ft 262 kts 60°
2026-04-19 23:04 48.76224 1.67733 6799 ft 262 kts 66°
2026-04-19 23:05 48.76904 1.70300 6612 ft 263 kts 67°
2026-04-19 23:05 48.77591 1.72877 6422 ft 263 kts 66°
2026-04-19 23:05 48.78285 1.75437 6230 ft 262 kts 66°
2026-04-19 23:05 48.79015 1.77975 6057 ft 262 kts 64°
2026-04-19 23:06 48.79746 1.80498 5871 ft 261 kts 63°
2026-04-19 23:06 48.80692 1.82828 5691 ft 258 kts 53°
2026-04-19 23:06 48.81495 1.85253 5528 ft 258 kts 69°
2026-04-19 23:06 48.82085 1.87814 5363 ft 257 kts 69°
2026-04-19 23:07 48.82717 1.90341 5185 ft 256 kts 68°
2026-04-19 23:07 48.83367 1.92845 5051 ft 254 kts 67°
2026-04-19 23:07 48.84020 1.95335 5008 ft 253 kts 67°
2026-04-19 23:07 48.84651 1.97737 4987 ft 242 kts 67°
2026-04-19 23:08 48.85256 2.00035 4982 ft 227 kts 67°
2026-04-19 23:08 48.85822 2.02188 4978 ft 212 kts 67°
2026-04-19 23:08 48.86350 2.04193 4976 ft 197 kts 67°
2026-04-19 23:08 48.86849 2.06086 4992 ft 191 kts 67°
2026-04-19 23:09 48.87350 2.07985 4997 ft 197 kts 67°
2026-04-19 23:09 48.87872 2.09963 4734 ft 204 kts 67°
2026-04-19 23:09 48.88396 2.11946 4472 ft 200 kts 68°
2026-04-19 23:09 48.88905 2.13875 4200 ft 193 kts 68°
2026-04-19 23:10 48.89397 2.15736 3938 ft 186 kts 68°
2026-04-19 23:10 48.89872 2.17531 3675 ft 182 kts 68°
2026-04-19 23:10 48.90344 2.19314 3435 ft 183 kts 67°
2026-04-19 23:10 48.90822 2.21119 3198 ft 186 kts 67°
2026-04-19 23:11 48.91297 2.22911 2925 ft 178 kts 67°
2026-04-19 23:11 48.91739 2.24579 2688 ft 161 kts 67°
2026-04-19 23:11 48.92131 2.26064 2461 ft 147 kts 68°
2026-04-19 23:11 48.92482 2.27476 2280 ft 140 kts 68°
2026-04-19 23:12 48.92833 2.28839 2096 ft 136 kts 65°
2026-04-19 23:12 48.93191 2.30148 1877 ft 133 kts 66°
2026-04-19 23:12 48.93531 2.31415 1723 ft 127 kts 66°
2026-04-19 23:12 48.93840 2.32580 1616 ft 112 kts 66°
2026-04-19 23:13 48.94131 2.33678 1465 ft 115 kts 64°
2026-04-19 23:13 48.94450 2.34844 1292 ft 122 kts 64°
2026-04-19 23:13 48.94776 2.36033 1066 ft 125 kts 65°
2026-04-19 23:13 48.95105 2.37265 909 ft 127 kts 63°
2026-04-19 23:14 48.95428 2.38474 744 ft 121 kts 63°
2026-04-19 23:14 48.95754 2.39675 564 ft 124 kts 63°
2026-04-19 23:14 48.96084 2.40897 421 ft 127 kts 61°
2026-04-19 23:14 48.96417 2.42155 234 ft 128 kts 63°
2026-04-19 23:15 48.96741 2.43350 181 ft 111 kts 66°
2026-04-19 23:15 48.96978 2.44240 198 ft 69 kts 67°
2026-04-19 23:15 48.97103 2.44705 207 ft 28 kts 68°
2026-04-19 23:15 48.97176 2.44967 213 ft 26 kts 67°
2026-04-19 23:16 48.97240 2.45214 221 ft 24 kts 68°
2026-04-19 23:16 48.97302 2.45441 224 ft 23 kts 68°
2026-04-19 23:16 48.97361 2.45661 226 ft 22 kts 67°
2026-04-19 23:16 48.97347 2.45870 228 ft 21 kts 139°
2026-04-19 23:17 48.97215 2.45831 223 ft 21 kts 227°
2026-04-19 23:17 48.97156 2.45628 222 ft 21 kts 248°
2026-04-19 23:17 48.97096 2.45402 217 ft 26 kts 248°
2026-04-19 23:17 48.97024 2.45135 210 ft 21 kts 248°
2026-04-19 23:18 48.96951 2.44996 206 ft 18 kts 178°
2026-04-19 23:18 48.96814 2.45042 198 ft 24 kts 167°
2026-04-19 23:18 48.96626 2.45107 201 ft 29 kts 167°
2026-04-19 23:18 48.96491 2.44995 183 ft 24 kts 257°
2026-04-19 23:19 48.96456 2.44754 179 ft 23 kts 256°
2026-04-19 23:19 48.96363 2.44557 171 ft 25 kts 231°
2026-04-19 23:19 48.96237 2.44437 170 ft 21 kts 205°
2026-04-19 23:19 48.96098 2.44339 163 ft 23 kts 205°
2026-04-19 23:20 48.95955 2.44239 160 ft 22 kts 205°
2026-04-19 23:20 48.95810 2.44138 155 ft 23 kts 205°
2026-04-19 23:20 48.95785 2.44121 155 ft 2 kts 199°
2026-04-19 23:20 48.95764 2.44127 155 ft 5 kts 144°
2026-04-19 23:21 48.95744 2.44179 154 ft 3 kts 115°
2026-04-19 23:21 48.95743 2.44210 154 ft 3 kts 60°
2026-04-19 23:21 48.95772 2.44216 154 ft 6 kts
2026-04-19 23:21 48.95794 2.44230 154 ft 1 kts 62°
2026-04-19 23:22 48.95793 2.44241 154 ft 1 kts 103°
2026-04-19 23:22 48.95788 2.44252 154 ft 1 kts 127°
2026-04-19 23:22 48.95777 2.44249 154 ft 1 kts 194°
2026-04-19 23:22 48.95777 2.44248 154 ft 0 kts 201°